User: anonymous   Login
Location: Unspecified
(0.0000°N, 0.0000°E)
Time: 20:01:01
(UTC+00:00)
Language:

TIANWANG 1B (TW-1B) - Orbit

View from above orbital plane
View from above orbital plane
View from above satellite
View from above satellite

Ground track
Ground track

The orbit data is extracted from the following two-line orbital elements,

1 40927U 15051C   17269.36051931  .00008828  00000-0  20053-3 0  9996
2 40927  97.2287 308.1520 0011654 162.7429 323.4514 15.43188415112462
Epoch (UTC): 26 September 2017 08:39:08
Eccentricity: 0.0011654
inclination: 97.2287°
perigee height: 429 km
apogee height: 444 km
right ascension of ascending node: 308.1520°
argument of perigee: 162.7429°
revolutions per day: 15.43188415
mean anomaly at epoch: 323.4514°
orbit number at epoch: 11246

The dashed part of the orbit path shows where the satellite is in the earth's shadow,  

DLR